[[{"header":{"parameterUnit":"m.s-1","parameterCategory":2,"la1":30.2991,"la2":30.254,"lo1":-89.0895,"lo2":-89.0444,"dy":0.0017,"dx":0.0017,"nx":28,"ny":28,"refTime":"2025-05-29T09:00:00:Z","depth":"0","parameterNumber":2,"parameterNumberName":"U-component_of_CURRENTS"},"data":[0,0,0,0,0,0,0,0,0,0,0,0,0,0,0,0,0,0,0,0,0,0,0,0,0,0,0,0,0,0,0,0,0,0,0,0,0,0,0,0,0,0,0,0,0,0,0,0,0,0,0,0,0,0,0,0,0,0,0.1518,0.1519,0,0.1551,0.1551,0.1551,0.1553,0.1553,0.1553,0.1552,0.1553,0.1553,0.1553,0,0,0,0,0,0,0,0,0,0,0,0,0,0.1445,0.1446,0.1518,0.1519,0.1519,0.1551,0.1551,0.1551,0.1553,0.1553,0.1553,0.1552,0.1553,0.1553,0.1554,0,0,0,0,0,0,0,0,0,0,0,0,0,0.1476,0.1447,0.1518,0.1525,0.1526,0.1551,0.1551,0.1551,0.1553,0.1553,0.1552,0.1552,0.1553,0.1553,0.1554,0.1563,0,0,0.1555,0.1555,0,0,0,0,0,0,0,0,0.1474,0.1478,0.1523,0.1525,0.1526,0.1549,0.1525,0.1554,0.1553,0.1541,0.1552,0.1552,0.155,0.155,0.1556,0.1563,0.1563,0.1555,0.1555,0.1555,0.1555,0,0,0,0,0,0,0,0.1472,0.1477,0.1529,0.1524,0.1526,0.1522,0.1526,0.1531,0.1545,0.1542,0.1543,0.1549,0.155,0.1555,0.1556,0.1563,0.1555,0.1555,0.1555,0.1555,0.1604,0.1605,0,0,0,0,0,0,0.1472,0.1475,0.1528,0.1531,0.15,0.1524,0.1528,0.1541,0.1546,0.1547,0.1549,0.1549,0.1555,0.1555,0.1556,0.1579,0.1555,0.1555,0.1556,0.1603,0.1604,0.1605,0,0,0,0,0,0,0.147,0.1477,0.1527,0.1504,0.151,0.1526,0.1539,0.1541,0.1549,0.1552,0.1552,0.1555,0.1555,0.1555,0.1568,0.1579,0.1556,0.1556,0.1601,0.1603,0.1605,0.1618,0,0,0,0,0,0,0.1468,0.1476,0.1483,0.1504,0.1512,0.1547,0.154,0.1542,0.1554,0.1554,0.1557,0.1557,0.1554,0.1567,0.1568,0.1579,0.1556,0.16,0.1602,0.1604,0.1617,0.162,0.1623,0,0,0,0,0,0.1466,0.1479,0.1483,0.149,0.1522,0.1547,0.1551,0.1559,0.1555,0.1563,0.1567,0.1557,0.1581,0.1569,0.1569,0.158,0.1599,0.1602,0.1604,0.1615,0.162,0.1623,0,0,0,0,0,0,0.145,0.1481,0.1486,0.1508,0.1528,0.1548,0.1558,0.1562,0.1572,0.1571,0.1568,0.1568,0.1581,0.1584,0.1571,0.1603,0.159,0.1592,0.1598,0.1602,0.1606,0.1587,0.1556,0,0,0,0,0,0.145,0.147,0.1496,0.1513,0.1525,0.1541,0.1551,0.1559,0.1572,0.1576,0.1578,0.1585,0.1593,0.16,0.1604,0.1623,0.1633,0.1633,0.1637,0.1639,0.1627,0.1643,0.1646,0.1613,0.1613,0.1613,0,0,0.1449,0.1469,0.1479,0.1511,0.1526,0.1545,0.1546,0.1567,0.1578,0.1574,0.1588,0.1592,0.1599,0.1617,0.1624,0.1621,0.1665,0.1642,0.1644,0.163,0.1645,0.1648,0.1651,0.1615,0.1614,0.1614,0,0,0.1458,0.1474,0.1494,0.1512,0.154,0.1551,0.1558,0.1582,0.1587,0.1606,0.1603,0.1614,0.1631,0.1637,0.1642,0.1669,0.1676,0.1679,0.1685,0.1701,0.1703,0.1705,0.1763,0.177,0.1687,0.1687,0.1687,0,0.1456,0.1483,0.1503,0.1525,0.1538,0.1554,0.1572,0.1584,0.1607,0.161,0.1612,0.1632,0.1638,0.1654,0.1664,0.1674,0.1698,0.1666,0.1704,0.1705,0.1707,0.1765,0.1773,0.1688,0.1687,0.1687,0.1687,0,0.1482,0.15,0.1514,0.1545,0.156,0.158,0.16,0.1611,0.1618,0.1628,0.1642,0.1653,0.1663,0.1675,0.1676,0.1696,0.1717,0.17,0.1688,0.1711,0.1772,0.1779,0.1689,0.1689,0.1688,0.1688,0,0,0.1493,0.1525,0.1531,0.1537,0.1571,0.1583,0.1603,0.1623,0.1627,0.1648,0.1657,0.1674,0.1675,0.168,0.1689,0.1705,0.1753,0.1709,0.171,0.1758,0.1824,0.2061,0.2092,0.1741,0.1741,0.1742,0.1877,0,0.1509,0.1537,0.1554,0.1574,0.1587,0.1602,0.1614,0.163,0.1643,0.1656,0.1669,0.1681,0.1681,0.1688,0.1703,0.1735,0.1766,0.172,0.1801,0.1804,0.2004,0.2106,0.2249,0.2401,0.1884,0.1885,0.1886,0,0.1533,0.1545,0.1564,0.1574,0.1581,0.1591,0.1603,0.1618,0.1639,0.1649,0.1665,0.1678,0.1713,0.1699,0.1772,0.1745,0.1781,0.1808,0.1813,0.2027,0.2055,0.2287,0.2433,0.2364,0.1897,0.1896,0.1895,0,0.1523,0.1551,0.1558,0.1566,0.1584,0.1585,0.1592,0.161,0.1615,0.1645,0.1662,0.1695,0.1732,0.176,0.1854,0.1802,0.1953,0.1886,0.2135,0.2153,0.2289,0.232,0.2368,0.1925,0.1925,0.1924,0.1924,0,0.1531,0.1539,0.1548,0.1551,0.1545,0.1567,0.1559,0.1576,0.1597,0.1628,0.1653,0.1713,0.1745,0.1846,0.1882,0.2095,0.1988,0.2173,0.2215,0.2308,0.2338,0.2294,0.2228,0.1929,0.1928,0.1927,0.1926,0,0.1521,0.1533,0.1533,0.1541,0.1538,0.1531,0.1527,0.1521,0.1563,0.161,0.1626,0.1736,0.1924,0.2008,0.2113,0.2189,0.232,0.2403,0.2554,0.2614,0.2798,0.2729,0.2663,0.2627,0.2695,0.2702,0.2708,0,0.1516,0.1517,0.1511,0.1489,0.1488,0.1474,0.1458,0.149,0.1509,0.1654,0.1693,0.1895,0.2107,0.2411,0.26,0.28,0.2589,0.2994,0.2921,0.2881,0.2829,0.2554,0.2503,0.3101,0.311,0.3117,0.3122,0,0.1496,0.1493,0.1486,0.1448,0.1424,0.141,0.1417,0.1447,0.1532,0.1636,0.1866,0.2065,0.2464,0.2806,0.3105,0.3222,0.2943,0.315,0.3034,0.3128,0.2898,0.2862,0.2942,0.3185,0.3178,0.3174,0.317,0.3168,0.147,0.1456,0.1437,0.1418,0.138,0.1395,0.1438,0.15,0.1621,0.187,0.202,0.2373,0.286,0.3374,0.3455,0.3704,0.3437,0.3659,0.3574,0.3289,0.3274,0.3552,0.3892,0.389,0.3888,0.3886,0.3885,0,0.147,0.145,0.1404,0.1402,0.1397,0.1388,0.1446,0.154,0.1762,0.2008,0.2291,0.2854,0.3318,0.3625,0.4071,0.4084,0.3827,0.3988,0.357,0.3495,0.3725,0.377,0.4191,0.4191,0.4191,0.4191,0.4191,0.4191,0.1467,0.1452,0.1451,0.1455,0.1457,0.1517,0.1597,0.1741,0.1924,0.2329,0.2646,0.2907,0.3376,0.395,0.4208,0.4188,0.3826,0.3793,0.3575,0.3715,0.3671,0.3628,0.3651,0.404,0.404,0.3272,0.3267,0.3264]},{"header":{"parameterUnit":"m.s-1","parameterCategory":2,"la1":30.2991,"la2":30.254,"lo1":-89.0895,"lo2":-89.0444,"dy":0.0017,"dx":0.0017,"nx":28,"ny":28,"refTime":"2025-05-29T09:00:00:Z","depth":"0","parameterNumber":3,"parameterNumberName":"V-component_of_CURRENTS"},"data":[0,0,0,0,0,0,0,0,0,0,0,0,0,0,0,0,0,0,0,0,0,0,0,0,0,0,0,0,0,0,0,0,0,0,0,0,0,0,0,0,0,0,0,0,0,0,0,0,0,0,0,0,0,0,0,0,0,0,-0.0938,-0.0939,0,-0.0991,-0.0991,-0.0992,-0.1,-0.1,-0.0999,-0.0999,-0.1051,-0.1052,-0.1054,0,0,0,0,0,0,0,0,0,0,0,0,0,-0.0868,-0.0869,-0.0938,-0.0939,-0.094,-0.0991,-0.0991,-0.0992,-0.1,-0.1,-0.0999,-0.0999,-0.105,-0.1052,-0.1054,0,0,0,0,0,0,0,0,0,0,0,0,0,-0.0907,-0.0869,-0.0938,-0.095,-0.0952,-0.0991,-0.0991,-0.0992,-0.1,-0.1,-0.0999,-0.0998,-0.1049,-0.1052,-0.1055,-0.1085,0,0,-0.1063,-0.1064,0,0,0,0,0,0,0,0,-0.0905,-0.0909,-0.0948,-0.0949,-0.0951,-0.0988,-0.0986,-0.1023,-0.1,-0.0982,-0.0999,-0.0998,-0.1031,-0.1035,-0.1046,-0.1087,-0.1089,-0.1063,-0.1065,-0.1066,-0.1067,0,0,0,0,0,0,0,-0.0902,-0.0907,-0.0959,-0.0948,-0.0951,-0.0961,-0.0965,-0.0993,-0.1009,-0.0983,-0.0984,-0.099,-0.1031,-0.1043,-0.1047,-0.109,-0.1063,-0.1066,-0.1067,-0.1068,-0.123,-0.1233,0,0,0,0,0,0,-0.0896,-0.0905,-0.0957,-0.096,-0.0926,-0.0962,-0.0967,-0.0977,-0.1009,-0.1013,-0.0991,-0.0991,-0.1039,-0.1044,-0.1049,-0.1148,-0.1066,-0.1069,-0.107,-0.1228,-0.1231,-0.1234,0,0,0,0,0,0,-0.0894,-0.09,-0.0955,-0.0934,-0.0941,-0.0964,-0.0975,-0.0978,-0.099,-0.1015,-0.1019,-0.0998,-0.1038,-0.1045,-0.1094,-0.1147,-0.107,-0.1072,-0.1225,-0.1229,-0.1232,-0.1307,0,0,0,0,0,0,-0.0892,-0.0899,-0.0901,-0.0933,-0.0942,-0.0988,-0.0976,-0.098,-0.0995,-0.0995,-0.1023,-0.1027,-0.1038,-0.109,-0.1097,-0.115,-0.1074,-0.1221,-0.1226,-0.1231,-0.1301,-0.1313,-0.1323,0,0,0,0,0,-0.0889,-0.0899,-0.0901,-0.0907,-0.0945,-0.0989,-0.0996,-0.1008,-0.0996,-0.1013,-0.1037,-0.1026,-0.1127,-0.1094,-0.1101,-0.1157,-0.1219,-0.1225,-0.1231,-0.1296,-0.131,-0.1323,0,0,0,0,0,0,-0.0858,-0.0902,-0.0905,-0.0923,-0.0957,-0.0991,-0.1005,-0.101,-0.1041,-0.104,-0.1053,-0.1061,-0.1124,-0.1131,-0.1095,-0.1221,-0.1174,-0.1182,-0.1221,-0.1235,-0.1246,-0.1198,-0.1077,0,0,0,0,0,-0.0855,-0.0881,-0.0918,-0.0933,-0.0951,-0.0976,-0.0992,-0.1005,-0.1037,-0.1048,-0.1072,-0.1107,-0.1156,-0.1185,-0.1219,-0.1285,-0.1245,-0.1328,-0.1339,-0.1349,-0.1317,-0.1329,-0.1336,-0.1254,-0.1254,-0.1254,0,0,-0.0846,-0.0873,-0.0886,-0.093,-0.0954,-0.1,-0.0984,-0.1018,-0.1058,-0.1051,-0.1111,-0.1138,-0.1179,-0.1257,-0.1288,-0.1271,-0.1353,-0.1356,-0.1364,-0.1326,-0.1335,-0.1343,-0.1349,-0.1258,-0.1257,-0.1256,0,0,-0.0865,-0.0868,-0.0909,-0.0943,-0.0989,-0.101,-0.102,-0.1064,-0.1085,-0.1147,-0.116,-0.121,-0.1283,-0.1327,-0.1358,-0.1448,-0.1402,-0.1476,-0.1504,-0.1518,-0.1524,-0.1528,-0.1481,-0.148,-0.1493,-0.1493,-0.1493,0,-0.0853,-0.0905,-0.0926,-0.0979,-0.1004,-0.1018,-0.1065,-0.11,-0.1155,-0.117,-0.1176,-0.1273,-0.1315,-0.1399,-0.1445,-0.1471,-0.1444,-0.1451,-0.1528,-0.1532,-0.1535,-0.1486,-0.1484,-0.1497,-0.1497,-0.1496,-0.1496,0,-0.0919,-0.0954,-0.0979,-0.1051,-0.1081,-0.112,-0.1168,-0.1198,-0.1217,-0.1245,-0.1311,-0.1367,-0.1409,-0.1466,-0.1489,-0.1553,-0.1513,-0.153,-0.1484,-0.1547,-0.1492,-0.1489,-0.1504,-0.1502,-0.1501,-0.15,0,0,-0.0919,-0.1007,-0.102,-0.1044,-0.1117,-0.1141,-0.1209,-0.126,-0.1265,-0.1342,-0.1354,-0.1482,-0.1469,-0.1502,-0.1541,-0.1579,-0.1601,-0.157,-0.1569,-0.1502,-0.1581,-0.1463,-0.1447,-0.1635,-0.1635,-0.1635,-0.153,0,-0.0966,-0.1056,-0.1095,-0.1161,-0.12,-0.1225,-0.1268,-0.131,-0.1334,-0.1348,-0.1411,-0.1434,-0.1499,-0.1501,-0.156,-0.1569,-0.1597,-0.1623,-0.1546,-0.1542,-0.1413,-0.1442,-0.1257,-0.114,-0.1526,-0.1526,-0.1525,0,-0.1034,-0.1076,-0.1151,-0.1185,-0.1201,-0.1235,-0.1255,-0.1296,-0.1325,-0.1333,-0.1371,-0.1383,-0.144,-0.1477,-0.1528,-0.1538,-0.156,-0.1579,-0.1576,-0.1425,-0.1417,-0.1144,-0.1119,-0.13,-0.1519,-0.152,-0.152,0,-0.1028,-0.1111,-0.1157,-0.1181,-0.1232,-0.1245,-0.1257,-0.1286,-0.1268,-0.1292,-0.1239,-0.1332,-0.1294,-0.1388,-0.1418,-0.1473,-0.1431,-0.151,-0.1423,-0.1412,-0.1213,-0.1184,-0.1327,-0.1542,-0.1543,-0.1543,-0.1543,0,-0.1066,-0.1101,-0.1146,-0.117,-0.1174,-0.1215,-0.1196,-0.1217,-0.119,-0.1097,-0.1201,-0.1101,-0.1266,-0.1254,-0.1361,-0.1333,-0.138,-0.1394,-0.138,-0.1234,-0.121,-0.1323,-0.1467,-0.1539,-0.154,-0.1541,-0.1541,0,-0.1063,-0.1112,-0.1143,-0.1176,-0.1175,-0.1169,-0.1124,-0.1076,-0.1067,-0.0932,-0.0912,-0.0898,-0.0854,-0.0993,-0.1072,-0.1175,-0.1266,-0.1212,-0.0994,-0.0957,-0.1076,-0.1228,-0.1221,-0.1348,-0.1111,-0.1107,-0.1104,0,-0.1066,-0.1091,-0.1118,-0.1094,-0.1103,-0.1083,-0.1031,-0.1022,-0.0918,-0.0753,-0.0638,-0.057,-0.0411,-0.049,-0.0682,-0.081,-0.1058,-0.0774,-0.0877,-0.103,-0.1192,-0.1265,-0.1385,-0.064,-0.0633,-0.0628,-0.0623,0,-0.103,-0.1048,-0.1059,-0.1011,-0.0963,-0.0889,-0.0791,-0.068,-0.0573,-0.0398,-0.0097,0.0047,0.0008,0.0034,-0.0194,-0.0348,-0.0856,-0.0668,-0.0896,-0.0879,-0.0894,-0.1023,-0.0747,-0.0576,-0.0581,-0.0584,-0.0587,-0.0588,-0.0958,-0.0943,-0.0926,-0.0866,-0.0802,-0.0611,-0.0434,-0.027,-0.0002,0.0407,0.0412,0.0791,0.0676,0.0433,0.0103,-0.0341,-0.0496,-0.0467,-0.0644,-0.0707,-0.0826,-0.0414,-0.0201,-0.0203,-0.0206,-0.0208,-0.0209,0,-0.0772,-0.0769,-0.0747,-0.0608,-0.0433,-0.0449,-0.0184,0.0079,0.053,0.0855,0.1198,0.1536,0.1293,0.0851,0.027,-0.0186,-0.0468,-0.0493,-0.0609,-0.0753,-0.0404,-0.0385,-0.0115,-0.0115,-0.0115,-0.0115,-0.0115,-0.0115,-0.0653,-0.0557,-0.0553,-0.0238,-0.012,0.023,0.0452,0.0791,0.1094,0.172,0.2116,0.2338,0.2203,0.1001,0.0061,-0.0297,-0.079,-0.0755,-0.1136,-0.0947,-0.0961,-0.0975,-0.0993,-0.0856,-0.0857,-0.1351,-0.1356,-0.136]}],[{"header":{"parameterUnit":"m.s-1","parameterCategory":2,"la1":30.2991,"la2":30.254,"lo1":-89.0895,"lo2":-89.0444,"dy":0.0017,"dx":0.0017,"nx":28,"ny":28,"refTime":"2025-05-29T09:00:00:Z","depth":"2","parameterNumber":2,"parameterNumberName":"U-component_of_CURRENTS"},"data":[0,0,0,0,0,0,0,0,0,0,0,0,0,0,0,0,0,0,0,0,0,0,0,0,0,0,0,0,0,0,0,0,0,0,0,0,0,0,0,0,0,0,0,0,0,0,0,0,0,0,0,0,0,0,0,0,0,0,0.1189,0.119,0,0.1238,0.1238,0.1239,0.1248,0.1248,0.1247,0.1247,0.1261,0.1262,0.1262,0,0,0,0,0,0,0,0,0,0,0,0,0,0.1105,0.1107,0.1189,0.119,0.1191,0.1238,0.1238,0.1239,0.1248,0.1248,0.1247,0.1247,0.1261,0.1262,0.1262,0,0,0,0,0,0,0,0,0,0,0,0,0,0.1145,0.1107,0.1189,0.1202,0.1204,0.1238,0.1238,0.1239,0.1248,0.1248,0.1247,0.1247,0.1261,0.1262,0.1262,0.1275,0,0,0.1265,0.1266,0,0,0,0,0,0,0,0,0.1143,0.1148,0.1199,0.1201,0.1203,0.1238,0.1214,0.125,0.1248,0.1229,0.1247,0.1247,0.1252,0.1253,0.1261,0.1275,0.1276,0.1265,0.1266,0.1266,0.1266,0,0,0,0,0,0,0,0.114,0.1146,0.1206,0.12,0.1203,0.1206,0.1211,0.1221,0.124,0.1231,0.1232,0.1241,0.1252,0.126,0.1261,0.1276,0.1265,0.1266,0.1267,0.1267,0.1324,0.1325,0,0,0,0,0,0,0.1138,0.1143,0.1205,0.1208,0.1174,0.1208,0.1214,0.1226,0.124,0.1243,0.1241,0.1241,0.1259,0.126,0.1262,0.131,0.1266,0.1267,0.1267,0.1323,0.1324,0.1325,0,0,0,0,0,0,0.1136,0.1143,0.1203,0.1178,0.1186,0.121,0.1224,0.1227,0.124,0.1249,0.125,0.1251,0.1259,0.1261,0.1285,0.1309,0.1267,0.1268,0.1322,0.1323,0.1324,0.1384,0,0,0,0,0,0,0.1134,0.1142,0.1151,0.1178,0.1187,0.1234,0.1224,0.1228,0.1246,0.1247,0.1258,0.1258,0.1259,0.1284,0.1286,0.1309,0.1269,0.132,0.1322,0.1324,0.1381,0.1387,0.1393,0,0,0,0,0,0.1131,0.1147,0.1151,0.1158,0.1198,0.1235,0.1241,0.1255,0.1247,0.1262,0.127,0.1258,0.1297,0.1286,0.1288,0.1312,0.1319,0.1322,0.1324,0.1378,0.1386,0.1393,0,0,0,0,0,0,0.1115,0.115,0.1155,0.1181,0.121,0.1237,0.1253,0.1258,0.1277,0.1276,0.1275,0.1277,0.1305,0.13,0.1288,0.1333,0.1304,0.1307,0.1345,0.1352,0.1358,0.1337,0.127,0,0,0,0,0,0.1116,0.1137,0.117,0.1191,0.1207,0.1228,0.1244,0.1256,0.1276,0.1284,0.1292,0.13,0.1316,0.1327,0.1336,0.1365,0.1371,0.1379,0.1385,0.1391,0.1375,0.1387,0.1392,0.1332,0.1332,0.1332,0,0,0.1115,0.1138,0.1149,0.119,0.1211,0.1248,0.1237,0.1268,0.1299,0.1282,0.1321,0.1321,0.1327,0.136,0.1372,0.136,0.1427,0.1393,0.1398,0.1379,0.1389,0.1395,0.14,0.1334,0.1333,0.1333,0,0,0.1135,0.1146,0.1177,0.1205,0.1244,0.1262,0.1273,0.1306,0.132,0.1355,0.1351,0.1362,0.139,0.1399,0.1407,0.1449,0.1455,0.1457,0.1477,0.149,0.1495,0.1499,0.1584,0.1595,0.1465,0.1465,0.1465,0,0.1131,0.1176,0.1191,0.1232,0.1254,0.1271,0.1308,0.1335,0.1372,0.1374,0.1374,0.1398,0.1406,0.1437,0.1456,0.1462,0.1491,0.1453,0.1498,0.1502,0.1505,0.159,0.1601,0.1468,0.1468,0.1467,0.1467,0,0.1184,0.1217,0.1237,0.1293,0.1318,0.1353,0.1389,0.141,0.1418,0.1431,0.1452,0.1463,0.1466,0.1484,0.1486,0.1515,0.1542,0.1503,0.1479,0.1514,0.1603,0.1613,0.1473,0.1471,0.1471,0.147,0,0,0.1179,0.1257,0.1265,0.1277,0.1349,0.1358,0.1419,0.1452,0.1456,0.1492,0.1503,0.1534,0.1514,0.1519,0.1525,0.1541,0.1619,0.1536,0.1535,0.1621,0.1707,0.1874,0.1902,0.1586,0.1587,0.1587,0.1786,0,0.1213,0.1275,0.132,0.1363,0.1386,0.1417,0.1453,0.1479,0.1501,0.1517,0.1531,0.1542,0.154,0.1538,0.1558,0.1592,0.1637,0.1572,0.1657,0.1661,0.1804,0.1915,0.1603,0.1765,0.1796,0.1798,0.1799,0,0.1254,0.1281,0.1329,0.1354,0.1366,0.1391,0.1407,0.1446,0.1486,0.1499,0.1521,0.1536,0.1589,0.1561,0.1657,0.1618,0.1664,0.1694,0.1702,0.1831,0.1845,0.172,0.1783,0.1816,0.1815,0.1814,0.1813,0,0.1207,0.1279,0.1299,0.1317,0.1362,0.1365,0.1385,0.1421,0.1445,0.1486,0.1515,0.1556,0.1605,0.1641,0.1767,0.1694,0.1897,0.1796,0.2001,0.2016,0.1753,0.1745,0.185,0.1849,0.1849,0.1848,0.1848,0,0.1217,0.1225,0.1263,0.1266,0.1251,0.1303,0.13,0.1325,0.1386,0.1452,0.149,0.159,0.162,0.1762,0.1808,0.2013,0.1947,0.2042,0.2079,0.178,0.1772,0.1785,0.1774,0.1856,0.1854,0.1853,0.1852,0,0.116,0.1207,0.1201,0.1226,0.1227,0.1202,0.1248,0.127,0.1331,0.1435,0.1464,0.1626,0.1854,0.196,0.2087,0.2117,0.2248,0.233,0.2044,0.2046,0.2334,0.2325,0.2525,0.2533,0.2539,0.2545,0.2549,0,0.1137,0.113,0.1133,0.1126,0.1133,0.1125,0.1148,0.1216,0.1291,0.1509,0.1594,0.1835,0.2068,0.2374,0.2402,0.2555,0.2547,0.2394,0.2184,0.239,0.2404,0.2384,0.2366,0.1865,0.1863,0.1862,0.1861,0,0.1058,0.1055,0.1048,0.1052,0.1061,0.1095,0.1159,0.1218,0.1383,0.1523,0.1837,0.2039,0.2312,0.2372,0.2566,0.2579,0.2335,0.2387,0.2632,0.1793,0.1796,0.1802,0.1798,0.185,0.1851,0.1852,0.1853,0.1853,0.0976,0.0956,0.0972,0.0997,0.1013,0.1128,0.1185,0.1319,0.1496,0.1693,0.1908,0.21,0.2165,0.2333,0.2367,0.2339,0.2475,0.2291,0.2278,0.2271,0.221,0.223,0.2357,0.2361,0.2364,0.2367,0.2369,0,0.0931,0.0952,0.0937,0.1002,0.1074,0.1109,0.1251,0.1322,0.1567,0.1679,0.1875,0.1802,0.1895,0.2007,0.1929,0.2006,0.179,0.1951,0.1582,0.1598,0.161,0.1498,0.1465,0.1463,0.1461,0.1459,0,0,0.0906,0.0928,0.0969,0.1096,0.1155,0.1261,0.1369,0.1443,0.1507,0.1566,0.1589,0.1662,0.1887,0.1599,0.1605,0.1539,0.1529,0.1468,0.2181,0.1754,0.1763,0.1799,0.1651,0,0,0,0,0]},{"header":{"parameterUnit":"m.s-1","parameterCategory":2,"la1":30.2991,"la2":30.254,"lo1":-89.0895,"lo2":-89.0444,"dy":0.0017,"dx":0.0017,"nx":28,"ny":28,"refTime":"2025-05-29T09:00:00:Z","depth":"2","parameterNumber":3,"parameterNumberName":"V-component_of_CURRENTS"},"data":[0,0,0,0,0,0,0,0,0,0,0,0,0,0,0,0,0,0,0,0,0,0,0,0,0,0,0,0,0,0,0,0,0,0,0,0,0,0,0,0,0,0,0,0,0,0,0,0,0,0,0,0,0,0,0,0,0,0,-0.0196,-0.0197,0,-0.0273,-0.0274,-0.0275,-0.0314,-0.0314,-0.0314,-0.0314,-0.0375,-0.0377,-0.0379,0,0,0,0,0,0,0,0,0,0,0,0,0,-0.0099,-0.0101,-0.0196,-0.0197,-0.0198,-0.0273,-0.0274,-0.0275,-0.0314,-0.0314,-0.0314,-0.0314,-0.0375,-0.0377,-0.0379,0,0,0,0,0,0,0,0,0,0,0,0,0,-0.0155,-0.0101,-0.0196,-0.0227,-0.0231,-0.0273,-0.0274,-0.0275,-0.0314,-0.0314,-0.0314,-0.0314,-0.0374,-0.0377,-0.0379,-0.039,0,0,-0.0386,-0.0387,0,0,0,0,0,0,0,0,-0.0151,-0.0158,-0.0222,-0.0225,-0.0229,-0.0285,-0.0262,-0.0313,-0.0314,-0.0281,-0.0314,-0.0314,-0.0344,-0.0349,-0.0362,-0.0393,-0.0396,-0.0386,-0.0388,-0.0389,-0.0389,0,0,0,0,0,0,0,-0.0147,-0.0155,-0.0226,-0.0223,-0.0227,-0.0243,-0.0251,-0.0272,-0.031,-0.0284,-0.0287,-0.0297,-0.0346,-0.036,-0.0364,-0.0397,-0.0386,-0.0388,-0.039,-0.0391,-0.0489,-0.049,0,0,0,0,0,0,-0.0139,-0.0151,-0.0223,-0.0228,-0.0191,-0.0245,-0.0253,-0.0266,-0.031,-0.0318,-0.0297,-0.0299,-0.0356,-0.0361,-0.0366,-0.0426,-0.0389,-0.0391,-0.0392,-0.0488,-0.0489,-0.049,0,0,0,0,0,0,-0.0136,-0.0145,-0.022,-0.0192,-0.0203,-0.0246,-0.026,-0.0268,-0.0291,-0.032,-0.0327,-0.0313,-0.0356,-0.0363,-0.0401,-0.0427,-0.0392,-0.0394,-0.0486,-0.0488,-0.049,-0.0517,0,0,0,0,0,0,-0.0133,-0.0143,-0.0152,-0.0191,-0.0204,-0.0251,-0.026,-0.0269,-0.0296,-0.0299,-0.0336,-0.0342,-0.0357,-0.0397,-0.0403,-0.0429,-0.0396,-0.0485,-0.0487,-0.0489,-0.0515,-0.052,-0.0524,0,0,0,0,0,-0.013,-0.0144,-0.0152,-0.0161,-0.0214,-0.0252,-0.026,-0.029,-0.0297,-0.031,-0.034,-0.0341,-0.0416,-0.04,-0.0407,-0.0434,-0.0483,-0.0486,-0.0489,-0.0513,-0.0519,-0.0524,0,0,0,0,0,0,-0.0111,-0.015,-0.016,-0.0187,-0.0218,-0.0259,-0.0277,-0.0294,-0.0328,-0.0334,-0.0356,-0.0364,-0.0408,-0.0416,-0.0398,-0.047,-0.0451,-0.0455,-0.0466,-0.0472,-0.0477,-0.0438,-0.0398,0,0,0,0,0,-0.0109,-0.0129,-0.0166,-0.0189,-0.0204,-0.0239,-0.0259,-0.0281,-0.0314,-0.033,-0.0359,-0.0391,-0.0423,-0.0443,-0.047,-0.0507,-0.049,-0.053,-0.0534,-0.0538,-0.0511,-0.0521,-0.0524,-0.0499,-0.0499,-0.0499,0,0,-0.0108,-0.0133,-0.0145,-0.0186,-0.0213,-0.0228,-0.0252,-0.0287,-0.0302,-0.0331,-0.0368,-0.0407,-0.0436,-0.0483,-0.0503,-0.0494,-0.0539,-0.0542,-0.0545,-0.0515,-0.0524,-0.0526,-0.0528,-0.0501,-0.0501,-0.0501,0,0,-0.0106,-0.0139,-0.0146,-0.017,-0.0209,-0.0233,-0.0241,-0.0289,-0.0315,-0.0359,-0.0385,-0.0433,-0.0486,-0.0512,-0.053,-0.0573,-0.0563,-0.0596,-0.0589,-0.0601,-0.0602,-0.0603,-0.0591,-0.0591,-0.0599,-0.06,-0.06,0,-0.0102,-0.0113,-0.0156,-0.0165,-0.0177,-0.0229,-0.0231,-0.0269,-0.0326,-0.0338,-0.0373,-0.0451,-0.0494,-0.0525,-0.0559,-0.0582,-0.0578,-0.0567,-0.0605,-0.0605,-0.0606,-0.0593,-0.0592,-0.0601,-0.0601,-0.0601,-0.0601,0,-0.0092,-0.0105,-0.0115,-0.0137,-0.016,-0.0178,-0.0225,-0.0257,-0.0301,-0.0333,-0.0388,-0.0458,-0.0496,-0.0539,-0.0571,-0.0601,-0.0594,-0.0609,-0.0585,-0.0609,-0.0596,-0.0594,-0.0604,-0.0603,-0.0602,-0.0602,0,0,-0.0069,-0.0098,-0.0102,-0.0096,-0.0143,-0.0158,-0.0189,-0.022,-0.022,-0.0312,-0.0314,-0.0426,-0.0467,-0.049,-0.0545,-0.0574,-0.0606,-0.0601,-0.0601,-0.0577,-0.0615,-0.0587,-0.0583,-0.0633,-0.0633,-0.0633,-0.0606,0,-0.0043,-0.0036,-0.0066,-0.0062,-0.0056,-0.0107,-0.0121,-0.0161,-0.0207,-0.023,-0.0317,-0.0352,-0.0448,-0.0475,-0.0527,-0.0575,-0.0602,-0.061,-0.0603,-0.0601,-0.0565,-0.058,-0.061,-0.0586,-0.0604,-0.0604,-0.0604,0,-0.0012,-0.001,0.0002,0.0001,-0.0002,-0.0019,-0.0033,-0.0053,-0.01,-0.0133,-0.0192,-0.0252,-0.0325,-0.0399,-0.049,-0.0493,-0.0555,-0.0597,-0.0597,-0.0551,-0.0571,-0.0565,-0.0583,-0.0601,-0.0601,-0.0601,-0.0601,0,0.005,0.0043,0.0058,0.0052,0.0033,0.0023,0.0008,-0.0028,-0.0017,-0.0068,-0.0055,-0.016,-0.0194,-0.0294,-0.0422,-0.0455,-0.0493,-0.0542,-0.0566,-0.0564,-0.0572,-0.0571,-0.0589,-0.0589,-0.0589,-0.0589,-0.0589,0,0.0108,0.0118,0.0082,0.009,0.0111,0.0074,0.0098,0.007,0.0068,0.0119,-0.0005,0.0027,-0.0173,-0.023,-0.036,-0.0447,-0.0448,-0.0546,-0.0554,-0.0584,-0.0584,-0.0582,-0.0581,-0.0588,-0.0588,-0.0588,-0.0588,0,0.0176,0.0154,0.0169,0.0145,0.0139,0.0149,0.0161,0.0198,0.0177,0.0247,0.024,0.0168,0.0104,-0.0068,-0.0208,-0.034,-0.0438,-0.0468,-0.048,-0.049,-0.0516,-0.0518,-0.0484,-0.0483,-0.0482,-0.0481,-0.048,0,0.0217,0.0226,0.0207,0.022,0.0202,0.0217,0.0249,0.0243,0.0307,0.0362,0.0425,0.0369,0.0378,0.0179,-0.0092,-0.0289,-0.0339,-0.0438,-0.0513,-0.0493,-0.0505,-0.0508,-0.0511,-0.0543,-0.0542,-0.0542,-0.0542,0,0.0282,0.0254,0.0261,0.0288,0.0308,0.0372,0.042,0.0499,0.0542,0.0628,0.0756,0.077,0.0548,0.0312,-0.001,-0.016,-0.0418,-0.0437,-0.0412,-0.0557,-0.0544,-0.0557,-0.0559,-0.0541,-0.0541,-0.0541,-0.0541,-0.0541,0.0304,0.032,0.0313,0.0345,0.04,0.0521,0.0607,0.0713,0.0861,0.0957,0.096,0.0944,0.0641,0.0216,-0.003,-0.0336,-0.0338,-0.0479,-0.0482,-0.0484,-0.0489,-0.0474,-0.0457,-0.0457,-0.0456,-0.0456,-0.0456,0,0.0312,0.0327,0.0376,0.0429,0.053,0.0547,0.0722,0.0826,0.1038,0.1073,0.1126,0.0846,0.0573,0.0267,-0.0193,-0.0435,-0.049,-0.0497,-0.0547,-0.0547,-0.0547,-0.0558,-0.0543,-0.0543,-0.0544,-0.0544,0,0,0.0303,0.0338,0.037,0.0516,0.0588,0.075,0.0871,0.1032,0.1109,0.1164,0.1102,0.0925,0.062,0.0268,-0.0077,-0.0305,-0.0359,-0.0344,-0.0261,-0.0281,-0.0277,-0.0536,-0.0551,0,0,0,0,0]}],[{"header":{"parameterUnit":"m.s-1","parameterCategory":2,"la1":30.2991,"la2":30.254,"lo1":-89.0895,"lo2":-89.0444,"dy":0.0017,"dx":0.0017,"nx":28,"ny":28,"refTime":"2025-05-29T09:00:00:Z","depth":"4","parameterNumber":2,"parameterNumberName":"U-component_of_CURRENTS"},"data":[0,0,0,0,0,0,0,0,0,0,0,0,0,0,0,0,0,0,0,0,0,0,0,0,0,0,0,0,0,0,0,0,0,0,0,0,0,0,0,0,0,0,0,0,0,0,0,0,0,0,0,0,0,0,0,0,0,0,0.0598,0.0599,0,0.0653,0.0654,0.0654,0.0694,0.0694,0.0695,0.0695,0.0741,0.0742,0.0743,0,0,0,0,0,0,0,0,0,0,0,0,0,0.0532,0.0533,0.0598,0.0599,0.06,0.0653,0.0654,0.0654,0.0694,0.0694,0.0695,0.0695,0.0741,0.0742,0.0743,0,0,0,0,0,0,0,0,0,0,0,0,0,0.0571,0.0534,0.0598,0.0627,0.063,0.0653,0.0654,0.0655,0.0694,0.0694,0.0695,0.0696,0.0741,0.0742,0.0743,0.0739,0,0,0.0747,0.0748,0,0,0,0,0,0,0,0,0.0568,0.0573,0.0622,0.0625,0.0628,0.0668,0.0648,0.0683,0.0694,0.0669,0.0695,0.0696,0.0716,0.0719,0.0727,0.0741,0.0743,0.0747,0.0748,0.0749,0.0749,0,0,0,0,0,0,0,0.0566,0.0571,0.0619,0.0622,0.0626,0.0638,0.0644,0.0654,0.0687,0.0671,0.0674,0.0681,0.0718,0.0726,0.0729,0.0744,0.0747,0.0748,0.0749,0.075,0.0837,0.0839,0,0,0,0,0,0,0.056,0.0568,0.0618,0.0621,0.06,0.0639,0.0645,0.0654,0.0688,0.0694,0.0681,0.0683,0.0724,0.0727,0.0731,0.0795,0.0749,0.075,0.0751,0.0836,0.0837,0.0839,0,0,0,0,0,0,0.0558,0.0564,0.0615,0.0596,0.0604,0.0639,0.0649,0.0655,0.0681,0.0695,0.0701,0.0703,0.0724,0.0729,0.0762,0.0795,0.075,0.0752,0.0834,0.0836,0.0838,0.0881,0,0,0,0,0,0,0.0556,0.0563,0.0575,0.0596,0.0605,0.0644,0.0648,0.0655,0.0684,0.0688,0.0716,0.072,0.0725,0.076,0.0764,0.0796,0.0753,0.0832,0.0835,0.0838,0.0878,0.0885,0.0891,0,0,0,0,0,0.0553,0.0567,0.0576,0.0582,0.0618,0.0645,0.0651,0.0677,0.0684,0.0701,0.0723,0.072,0.0781,0.0762,0.0766,0.0799,0.083,0.0834,0.0837,0.0875,0.0883,0.0891,0,0,0,0,0,0,0.0544,0.0573,0.0583,0.0605,0.063,0.0652,0.0672,0.0685,0.0715,0.0724,0.0733,0.0739,0.0783,0.0784,0.0763,0.0835,0.0808,0.0812,0.0835,0.0843,0.085,0.0873,0.0754,0,0,0,0,0,0.0547,0.0566,0.0592,0.0611,0.0625,0.065,0.0667,0.0685,0.0709,0.0724,0.0744,0.0769,0.0797,0.0814,0.0835,0.0867,0.0882,0.0894,0.09,0.0905,0.0928,0.0965,0.0977,0.0851,0.0851,0.085,0,0,0.0546,0.0566,0.0576,0.0611,0.0632,0.0655,0.0663,0.0694,0.072,0.0723,0.0769,0.079,0.0811,0.0854,0.0874,0.0861,0.0951,0.091,0.0914,0.0935,0.097,0.0983,0.0994,0.0853,0.0853,0.0852,0,0,0.0548,0.0575,0.059,0.0615,0.0652,0.0671,0.0683,0.0718,0.0745,0.0788,0.08,0.0844,0.088,0.0908,0.0923,0.0976,0.0983,0.0985,0.1038,0.1073,0.1084,0.1093,0.1133,0.1146,0.0989,0.0989,0.0989,0,0.0546,0.057,0.0599,0.0621,0.0646,0.0678,0.0701,0.0732,0.0775,0.0808,0.0811,0.0898,0.091,0.0971,0.1,0.0992,0.1017,0.1003,0.1081,0.1091,0.11,0.1138,0.1152,0.0991,0.0991,0.0991,0.0991,0,0.0555,0.0583,0.0596,0.0636,0.0667,0.0695,0.0738,0.078,0.0818,0.0853,0.0932,0.0961,0.102,0.1029,0.1036,0.1112,0.1111,0.1082,0.1059,0.1116,0.1152,0.1166,0.0995,0.0994,0.0993,0.0993,0,0,0.0522,0.0589,0.0593,0.0624,0.068,0.0708,0.0763,0.0826,0.0878,0.0934,0.1002,0.1068,0.1105,0.1127,0.1141,0.1179,0.1263,0.1172,0.1172,0.1208,0.1358,0.1239,0.1242,0.1249,0.1251,0.1253,0.1358,0,0.0519,0.0565,0.0599,0.0651,0.0683,0.074,0.0789,0.0855,0.0921,0.0995,0.1054,0.1122,0.1134,0.1175,0.122,0.1258,0.1301,0.1238,0.1302,0.1304,0.1188,0.1254,0.1261,0.1368,0.1371,0.1373,0.1375,0,0.0509,0.0549,0.0596,0.0678,0.0697,0.0739,0.0843,0.0892,0.0998,0.1053,0.1144,0.119,0.1289,0.1266,0.1385,0.135,0.1373,0.1387,0.139,0.1277,0.121,0.13,0.1399,0.1397,0.1395,0.1394,0.1392,0,0.0474,0.0545,0.0588,0.0614,0.0707,0.0757,0.0814,0.0919,0.0985,0.1101,0.1169,0.1273,0.1349,0.14,0.1446,0.1437,0.154,0.1519,0.1433,0.1425,0.148,0.1468,0.1589,0.1589,0.1589,0.1589,0.1588,0,0.0455,0.0491,0.0584,0.0612,0.0683,0.0753,0.0846,0.0917,0.1033,0.1106,0.1207,0.1278,0.139,0.1455,0.1476,0.1497,0.157,0.1468,0.1449,0.1496,0.1485,0.149,0.1477,0.1592,0.1592,0.1591,0.159,0,0.0409,0.0464,0.0524,0.0632,0.0671,0.0727,0.0865,0.093,0.1045,0.1144,0.1187,0.1332,0.1419,0.1483,0.1564,0.1536,0.155,0.1521,0.158,0.1558,0.1416,0.1405,0.1487,0.1484,0.1481,0.1479,0.1477,0,0.0386,0.0412,0.053,0.0578,0.0634,0.0732,0.0794,0.0921,0.0983,0.1151,0.1181,0.1322,0.1392,0.1435,0.1495,0.1529,0.1496,0.1507,0.1469,0.1435,0.1409,0.1402,0.1394,0.1472,0.1472,0.1471,0.147,0,0.0346,0.0392,0.045,0.0548,0.0626,0.0702,0.0798,0.0841,0.0967,0.1084,0.1164,0.1228,0.1317,0.1383,0.1404,0.1414,0.1509,0.1479,0.1485,0.145,0.1418,0.1394,0.1389,0.1461,0.1462,0.1463,0.1464,0,0.0315,0.0348,0.043,0.0517,0.0596,0.0644,0.071,0.0787,0.0866,0.1033,0.1048,0.1176,0.129,0.1322,0.1332,0.1343,0.1347,0.1315,0.133,0.1341,0.1241,0.1176,0.1149,0,0,0,0,0,0.028,0.0322,0.0396,0.0482,0.055,0.06,0.0694,0.0756,0.0868,0.0895,0.0975,0.1036,0.1115,0.1185,0.1174,0.1274,0.1342,0.1256,0.1309,0.1409,0.142,0.1312,0,0,0,0,0,0,0.0262,0.032,0.0376,0.0424,0.0472,0.0537,0.0592,0.0673,0.0695,0.0817,0.0865,0.0969,0.1057,0.1105,0.1152,0.1171,0.1183,0.1335,0.1332,0.1402,0.1412,0.1421,0.1314,0,0,0,0,0]},{"header":{"parameterUnit":"m.s-1","parameterCategory":2,"la1":30.2991,"la2":30.254,"lo1":-89.0895,"lo2":-89.0444,"dy":0.0017,"dx":0.0017,"nx":28,"ny":28,"refTime":"2025-05-29T09:00:00:Z","depth":"4","parameterNumber":3,"parameterNumberName":"V-component_of_CURRENTS"},"data":[0,0,0,0,0,0,0,0,0,0,0,0,0,0,0,0,0,0,0,0,0,0,0,0,0,0,0,0,0,0,0,0,0,0,0,0,0,0,0,0,0,0,0,0,0,0,0,0,0,0,0,0,0,0,0,0,0,0,0.0248,0.0248,0,0.023,0.023,0.023,0.0193,0.0192,0.0191,0.0191,0.0186,0.0187,0.0187,0,0,0,0,0,0,0,0,0,0,0,0,0,0.0255,0.0255,0.0248,0.0248,0.0248,0.0231,0.023,0.023,0.0193,0.0192,0.0191,0.019,0.0186,0.0187,0.0187,0,0,0,0,0,0,0,0,0,0,0,0,0,0.0246,0.0255,0.0249,0.0227,0.0225,0.0231,0.023,0.023,0.0193,0.0192,0.0191,0.019,0.0186,0.0187,0.0188,0.0216,0,0,0.019,0.0191,0,0,0,0,0,0,0,0,0.0247,0.0246,0.0231,0.0229,0.0226,0.0213,0.0231,0.0226,0.0194,0.0206,0.0191,0.0189,0.0197,0.0197,0.0196,0.0216,0.0216,0.019,0.0191,0.0191,0.0192,0,0,0,0,0,0,0,0.0248,0.0247,0.0242,0.023,0.0228,0.022,0.0217,0.023,0.0209,0.0205,0.0202,0.02,0.0196,0.0196,0.0196,0.0216,0.019,0.0191,0.0192,0.0192,0.026,0.0261,0,0,0,0,0,0,0.025,0.0248,0.0242,0.0241,0.0234,0.0221,0.0218,0.0218,0.0208,0.0205,0.0201,0.0198,0.0195,0.0195,0.0196,0.0256,0.0191,0.0192,0.0193,0.0259,0.0261,0.0262,0,0,0,0,0,0,0.0251,0.025,0.0243,0.0243,0.0242,0.0222,0.0223,0.0219,0.0216,0.0205,0.0202,0.0201,0.0194,0.0194,0.0215,0.0254,0.0193,0.0193,0.0258,0.0259,0.0261,0.0359,0,0,0,0,0,0,0.0251,0.0251,0.0255,0.0244,0.0242,0.0259,0.0224,0.0219,0.0216,0.0213,0.0205,0.0203,0.0193,0.0214,0.0216,0.0254,0.0194,0.0256,0.0258,0.0261,0.0354,0.0364,0.0373,0,0,0,0,0,0.0251,0.0271,0.0256,0.0255,0.0248,0.026,0.026,0.0241,0.0218,0.0231,0.0222,0.0203,0.023,0.0216,0.0218,0.0258,0.0255,0.0258,0.026,0.035,0.0362,0.0373,0,0,0,0,0,0,0.0275,0.0268,0.0252,0.0266,0.0266,0.0254,0.0267,0.0247,0.0249,0.0246,0.0224,0.0224,0.0256,0.0241,0.0225,0.0282,0.0238,0.0242,0.0306,0.0317,0.0326,0.0315,0.0195,0,0,0,0,0,0.0282,0.0297,0.0284,0.0298,0.03,0.0282,0.0283,0.0271,0.0269,0.0267,0.0263,0.026,0.0271,0.0279,0.0286,0.0321,0.0264,0.0345,0.0354,0.0362,0.0354,0.0296,0.0298,0.0271,0.0271,0.0271,0,0,0.0296,0.0294,0.0302,0.0304,0.0302,0.0328,0.0281,0.0294,0.0318,0.027,0.0307,0.0294,0.0286,0.0326,0.0339,0.0318,0.0342,0.0366,0.0373,0.036,0.0299,0.0301,0.0303,0.0273,0.0273,0.0273,0,0,0.0345,0.0329,0.0363,0.0369,0.0372,0.0365,0.037,0.0366,0.0366,0.0399,0.0368,0.0372,0.0399,0.0395,0.0397,0.0458,0.0391,0.0465,0.0509,0.0454,0.0455,0.0455,0.0393,0.0387,0.0472,0.0472,0.0472,0,0.036,0.0392,0.0375,0.0411,0.0418,0.0386,0.0422,0.0431,0.0435,0.0429,0.0427,0.0428,0.0433,0.0451,0.0482,0.0481,0.0426,0.0472,0.0464,0.0463,0.0462,0.0398,0.039,0.0477,0.0477,0.0476,0.0476,0,0.0436,0.0459,0.0481,0.0512,0.0523,0.0547,0.0549,0.0559,0.0551,0.0542,0.0552,0.0547,0.0532,0.0552,0.0547,0.0545,0.0502,0.0481,0.0435,0.047,0.0401,0.0391,0.0484,0.0483,0.0481,0.048,0,0,0.0472,0.0523,0.0531,0.0543,0.0571,0.0578,0.0626,0.0634,0.0627,0.0647,0.0631,0.0676,0.063,0.0627,0.0607,0.058,0.0547,0.0537,0.0531,0.0472,0.0409,0.0368,0.0352,0.0516,0.0515,0.0514,0.0366,0,0.0531,0.0601,0.0618,0.0673,0.0696,0.0684,0.0717,0.0718,0.0708,0.0689,0.0671,0.0659,0.0672,0.0651,0.0632,0.0556,0.0523,0.0588,0.0384,0.0378,0.0335,0.034,0.051,0.0358,0.0356,0.0354,0.0353,0,0.0597,0.0627,0.0693,0.0711,0.0719,0.0753,0.0744,0.0768,0.0742,0.0728,0.0706,0.0668,0.0644,0.0636,0.0536,0.057,0.0502,0.0447,0.0439,0.0355,0.0318,0.0312,0.0333,0.0335,0.0336,0.0337,0.0339,0,0.0603,0.0672,0.0714,0.0728,0.0758,0.0775,0.0785,0.0774,0.0772,0.0734,0.0707,0.0661,0.0623,0.0544,0.0462,0.0483,0.032,0.0326,0.0222,0.0217,0.0254,0.0255,0.0239,0.0239,0.024,0.024,0.024,0,0.0638,0.0669,0.0717,0.0735,0.0756,0.0777,0.0784,0.078,0.0765,0.074,0.0716,0.0673,0.0596,0.0503,0.043,0.0289,0.029,0.0216,0.0174,0.0301,0.0309,0.0246,0.0249,0.0234,0.0236,0.0237,0.0238,0,0.0626,0.0672,0.0706,0.0747,0.0759,0.0766,0.079,0.0782,0.0777,0.0739,0.0725,0.0664,0.0542,0.0447,0.0294,0.0239,0.0111,0.0059,0.0187,0.0156,0.0052,0.0062,-0.0078,-0.0081,-0.0083,-0.0085,-0.0087,0,0.0622,0.0644,0.0696,0.0709,0.0731,0.0753,0.0761,0.0779,0.0772,0.0726,0.0697,0.059,0.0532,0.0288,0.0198,0.0021,0.0014,-0.0058,0.0025,0.0045,0.0018,0.0032,0.0044,-0.009,-0.0091,-0.0092,-0.0092,0,0.0589,0.0615,0.0635,0.067,0.0693,0.0715,0.0735,0.0732,0.0734,0.0733,0.0646,0.0539,0.0391,0.0254,0.011,-0.0003,-0.0011,-0.0081,-0.0076,0.0001,0.0029,0.0007,0.0022,-0.01,-0.0099,-0.0098,-0.0098,0,0.0544,0.0549,0.0583,0.0605,0.0641,0.0663,0.0686,0.0678,0.0676,0.0647,0.0608,0.0483,0.0421,0.0236,0.0104,-0.0016,-0.0028,-0.0045,-0.0041,-0.0034,0.004,0.0086,-0.0075,0,0,0,0,0,0.0488,0.049,0.0513,0.0542,0.0586,0.0612,0.0654,0.0678,0.0689,0.0622,0.0622,0.0487,0.0294,0.022,0.0088,0.0064,-0.005,-0.0093,-0.0068,-0.0145,-0.0135,-0.0058,0,0,0,0,0,0,0.0446,0.0462,0.0486,0.0489,0.0506,0.0548,0.0583,0.06,0.0573,0.0574,0.0477,0.0442,0.0262,0.0356,0.0077,0.0043,0.004,-0.0174,-0.0176,-0.015,-0.0141,-0.0134,-0.0051,0,0,0,0,0]}]]